Location: Seattle
(47.6064°N, 122.3308°W)
Time: 00:21:12
(UTC-08:00)

Tiros 1 - Pass Details

Date: 01 December 2020
Orbit: 630 x 663 km, 48.4° (Epoch: 28 January)

Event Time Altitude Azimuth Distance (km) Brightness Sun altitude
Rises 19:33:14 0° 286° (WNW) 2,990 11.6 -31.8°
Reaches altitude 10° 19:35:40 10° 281° (W) 2,072 10.6 -32.2°
Enters shadow 19:38:26 31° 260° (W) 1,146 8.9 -32.7°
Maximum altitude 19:40:14 47° 208° (SSW) 870 - -33.0°
Drops below altitude 10° 19:44:45 10° 135° (SE) 2,045 - -33.8°
Sets 19:47:08 0° 130° (SE) 2,947 - -34.2°
